Location: Cutler
(25.6150°N, 80.3110°W)
Time: 07:31:47
(UTC-05:00)

Tiangong 1 - Pass Details

Date: 16 November 2017
Orbit: 285 x 309 km, 42.8° (Epoch: 19 November)

Event Time Altitude Azimuth Distance (km) Brightness Sun altitude
Exits shadow 05:20:30 60° 146° (SE) 333 0.9 -17.9°
Drops below altitude 10° 05:22:40 10° 131° (SE) 1,131 4.4 -17.5°
Sets 05:24:37 0° 130° (SE) 1,952 5.8 -17.0°
